Location: Étang Rond
(42.7927°N, 1.0661°E)
Time: 22:08:51
(UTC+00:00)

USA 234 - Pass Details

Date: 08 November 2025
Orbit: 1100 x 1107 km, 123.0° (Epoch: 02 December)

Event Time Altitude Azimuth Distance (km) Brightness Sun altitude
Rises 05:32:16 0° 161° (SSE) 3,912 6.6 -12.5°
Reaches altitude 10° 05:35:02 10° 170° (S) 2,957 5.8 -12.0°
Maximum altitude 05:40:48 33° 233° (SW) 1,758 4.0 -11.0°
Enters shadow 05:46:14 12° 294° (WNW) 2,843 4.8 -10.0°
